Location: Moy Burn
(57.3833°N, 4.0667°W)
Time: 09:13:40
(UTC+00:00)

Iridium 4 Rocket - Pass Details

Date: 08 August 2020
Orbit: 586 x 903 km, 86.9° (Epoch: 19 September)

Event Time Altitude Azimuth Distance (km) Brightness Sun altitude
Exits shadow 22:21:44 19° 156° (SSE) 1,478 4.3 -12.7°
Maximum altitude 22:24:35 50° 88° (E) 776 3.4 -12.9°
Drops below altitude 10° 22:28:40 10° 13° (NNE) 1,936 6.4 -13.1°
Sets 22:30:52 0° 8° (N) 2,833 7.4 -13.3°
